Location: Allie Creek
(37.5926°N, 89.8526°W)
Time: 00:22:31
(UTC+00:00)

Meteor 1-27 Rocket - Pass Details

Date: 18 April 2024
Orbit: 829 x 909 km, 81.3° (Epoch: 28 May)

Event Time Altitude Azimuth Distance (km) Brightness Sun altitude
Exits shadow 09:22:24 28° 288° (WNW) 1,569 4.8 -21.9°
Drops below altitude 10° 09:27:12 10° 345° (NNW) 2,506 6.4 -21.1°
Sets 09:29:58 0° 357° (N) 3,433 7.3 -20.7°
